Temperature
17 17 17 18 18 18 18 18 18 18 18 18 18 18 18 18 18 18 18 18 18 18 18 18 18 18 18 18 18 18 18 18 18 18 18 18 18 18 18 18 18 18 18
18 17 17 17 18 18 18 18 18 18 18 17 17 17 17 17 18 18 18 17 17 17 18 18 18 18 18 18 18 18 17 17 18 18 18 17 17 17 17 17 17 17 18
18 17 17 17 18 18 18 17 17 17 17 17 17 17 17 17 18 18 18 17 17 17 17 17 17 17 18 18 18 17 17 17 17 17 17 17 17 17 17 17 17 17 17
18 17 17 17 18 18 17 17 17 17 17 17 17 17 17 17 17 17 17 17 17 17 17 17 17 17 17 17 17 17 17 17 17 17 17 17 17 17 17 17 17 17 17
17 17 17 17 17 17 17 17 17 17 17 17 17 17 17 17 17 17 17 17 17 17 17 17 17 17 17 17 17 17 17 17 17 17 17 17 17 17 17 17 17 17 17
17 17 17 17 17 17 17 17 17 17 17 17 17 17 17 17 17 17 17 17 17 17 17 17 17 17 17 17 17 17 17 17 17 17 17 17 17 17 17 17 17 17 17
17 17 17 17 17 17 17 17 17 17 17 17 17 17 17 17 17 17 17 17 17 17 17 17 17 17 17 17 17 17 17 17 17 17 17 17 17 17 17 17 17 17 17
17 17 17 17 17 17 17 17 17 17 17 17 17 17 17 17 17 17 17 17 17 17 17 17 17 17 17 16 17 17 17 17 17 17 16 16 16 16 16 16 16 17 16
17 17 17 17 17 17 17 17 17 17 17 17 17 17 17 17 17 17 16 16 16 16 16 16 17 17 16 16 16 17 16 16 16 16 16 16 16 16 16 16 16 16 16
17 17 17 17 17 17 17 17 17 17 17 16 16 16 16 16 16 16 16 16 16 16 16 16 16 16 16 16 16 16 16 16 16 16 16 16 16 16 16 16 16 16 16
17 17 17 17 17 17 17 17 16 16 16 16 16 16 16 16 16 16 16 16 16 16 16 16 16 16 16 16 16 16 16 16 16 16 16 16 16 16 16 16 16 16 16
17 17 17 17 17 17 17 16 16 16 16 16 16 16 16 16 16 16 16 16 16 16 16 16 16 16 16 16 16 16 16 16 16 16 16 16 16 16 16 16 16 16 16
17 17 17 17 17 17 17 16 16 16 16 16 16 16 16 16 16 16 16 16 16 16 16 16 16 16 16 16 16 16 16 16 16 16 16 16 16 16 16 16 16 16 16
17 17 17 17 17 17 17 16 16 16 16 16 16 16 16 16 16 16 16 16 16 15 15 15 15 15 15 15 15 15 15 16 15 15 15 15 15 15 16 15 15 15 15
17 17 17 17 17 17 17 16 16 16 16 16 16 16 16 16 16 15 15 15 15 15 15 15 15 15 15 15 15 15 15 15 15 15 15 15 15 15 15 15 15 15 15
17 17 17 17 17 17 17 16 16 16 16 16 16 16 16 16 15 15 15 15 15 15 15 15 15 15 15 15 15 15 15 15 15 15 15 15 15 15 15 15 15 15 15
17 17 17 17 17 17 17 16 16 16 16 16 16 16 15 15 15 15 15 15 15 15 15 15 15 15 15 15 15 15 15 15 15 15 15 15 15 15 15 15 15 15 15
17 17 17 17 17 17 16 16 16 16 16 16 16 15 15 15 15 15 15 15 15 15 14 14 14 14 14 14 14 14 14 14 14 14 15 15 15 15 15 15 15 15 14
18 17 17 17 17 17 16 16 16 16 16 15 15 15 15 15 15 15 15 15 14 14 14 14 14 14 14 14 14 14 14 14 14 14 14 14 14 15 15 15 14 14 14
17 17 17 17 16 16 16 16 16 16 15 15 15 15 15 15 15 14 14 14 14 14 14 14 14 14 14 14 14 14 14 14 14 14 14 14 14 14 14 14 14 14 14
17 17 17 17 16 16 16 16 16 15 15 15 15 15 14 14 14 14 14 14 14 14 14 14 13 13 14 14 14 14 14 13 13 14 14 14 14 14 14 14 14 14 14
17 17 17 16 16 16 16 16 15 15 15 15 14 14 14 14 14 14 14 14 14 13 13 13 13 13 13 13 13 13 13 13 13 13 13 13 13 13 13 13 14 14 14
17 17 17 16 16 16 16 15 15 15 15 14 14 14 14 14 14 14 13 13 13 13 13 13 13 13 13 13 13 13 12 12 12 13 13 13 13 13 13 13 13 13 13
17 17 16 16 16 16 16 15 15 15 15 14 14 14 14 13 13 13 13 13 13 13 13 13 12 12 12 12 12 12 12 12 12 12 12 12 12 13 13 13 13 13 13
17 16 16 16 16 16 15 15 15 15 14 14 14 14 14 13 13 13 13 13 13 13 13 12 12 12 12 12 12 12 12 12 12 12 11 12 12 12 12 12 13 13 13
17 16 16 16 16 15 15 15 15 14 14 14 14 13 13 13 13 13 13 13 13 12 12 12 12 12 12 12 12 12 12 12 12 12 12 11 12 12 12 12 12 12 12
Wind_Speed
1 1 7 9 10 10 10 10 10 10 11 11 11 12 12 12 13 13 13 12 12 12 11 11 11 11 10 10 9 8 8 8 7 7 7 7 7 7 7 7 7 6 7
4 4 8 10 10 10 10 10 10 10 10 10 11 11 11 12 12 12 12 12 12 12 11 11 11 11 10 10 9 8 8 7 7 6 6 6 6 6 6 6 6 6 7
6 7 8 10 10 10 9 9 9 9 10 10 11 11 12 12 12 12 12 12 11 11 11 11 11 10 10 9 9 8 8 8 7 6 5 4 4 5 6 6 6 6 6
8 7 9 10 10 10 9 9 9 9 9 10 10 11 11 12 12 11 11 11 11 10 10 10 10 9 9 9 8 8 8 8 8 7 5 3 4 5 6 6 5 6 6
7 8 9 10 10 10 9 9 9 9 9 9 10 11 11 11 11 11 11 11 10 10 10 9 9 9 9 8 8 8 8 8 8 8 6 5 4 5 6 6 5 6 6
6 7 9 10 10 9 9 9 9 9 9 9 9 10 10 10 11 11 10 10 10 9 9 9 8 8 8 8 8 8 8 9 8 8 6 6 5 6 7 7 7 7 6
6 7 8 10 9 9 9 9 9 10 9 9 9 9 10 9 10 10 9 9 9 9 9 9 8 8 8 8 8 8 9 9 8 7 6 5 6 7 8 8 7 6 6
8 6 8 9 9 9 9 9 9 9 9 9 9 9 9 8 8 8 8 8 8 9 9 8 8 8 8 8 8 8 8 8 7 7 5 5 7 8 8 8 7 6 6
7 6 5 7 8 9 8 8 8 8 8 9 9 8 8 8 7 7 7 7 7 7 7 7 7 7 7 8 9 9 9 9 7 5 5 4 7 8 8 8 8 7 6
6 5 4 5 5 5 6 7 8 7 7 8 8 8 7 6 6 6 6 6 6 6 6 5 5 6 7 7 9 9 9 8 7 6 4 5 7 7 7 7 7 7 6
6 4 3 4 4 4 4 5 6 6 6 6 6 7 6 5 5 5 5 5 5 5 5 5 5 6 7 7 8 8 8 6 6 5 4 5 7 7 7 7 7 6 7
5 4 4 4 3 4 4 4 4 4 4 4 4 4 4 3 3 4 5 5 5 5 6 6 6 6 6 6 7 7 6 6 5 4 5 5 6 6 7 7 6 6 7
6 5 5 4 4 4 2 4 3 2 2 3 3 3 3 3 3 3 3 3 4 4 5 5 5 4 4 4 5 5 5 5 4 3 4 5 5 6 7 7 6 6 7
6 6 5 5 4 4 3 3 3 2 2 2 3 3 3 2 2 2 2 2 3 3 3 4 3 4 5 5 5 4 4 4 3 3 4 5 5 6 6 6 6 6 6
5 6 5 5 5 4 3 2 3 2 3 3 3 3 4 2 1 1 2 2 3 3 3 3 3 4 4 4 4 4 3 3 3 3 3 5 5 5 5 5 5 5 5
5 5 5 5 5 5 4 3 2 3 4 4 3 4 5 4 2 2 2 3 3 4 4 4 3 3 3 3 4 3 3 3 4 4 4 4 5 5 5 5 5 5 5
6 5 5 5 5 6 5 4 3 3 4 4 4 4 5 6 5 4 3 2 3 4 5 5 5 4 3 4 4 3 3 3 3 3 3 3 3 3 4 4 5 5 5
5 5 5 5 5 5 5 4 4 4 4 4 4 4 5 6 7 5 3 2 3 4 4 3 3 3 4 3 3 2 2 2 2 3 3 4 3 2 3 4 4 4 4
6 6 5 5 6 5 5 4 4 4 4 4 4 4 5 6 7 6 3 3 5 4 3 3 3 2 2 3 2 2 2 2 1 3 2 2 2 2 3 2 3 3 3
6 6 5 5 5 5 4 4 3 3 3 3 3 4 5 5 7 6 4 4 5 4 3 3 3 3 2 1 2 3 3 2 2 2 2 2 3 2 2 3 3 3 3
5 6 5 6 4 4 3 3 3 2 1 1 2 4 4 5 6 6 3 3 3 3 3 3 2 3 2 2 3 3 4 3 4 3 2 3 3 3 4 3 3 3 3
6 6 6 6 5 5 4 3 2 3 2 1 1 3 4 5 5 5 4 3 3 3 3 3 3 2 1 2 2 2 3 4 4 4 3 2 3 3 3 3 4 3 3
6 6 6 6 6 5 5 4 3 3 2 2 1 1 1 3 4 5 4 3 2 2 2 1 2 2 1 1 1 3 2 1 2 3 4 3 3 2 2 3 3 3 2
7 6 6 6 6 6 6 6 5 3 2 2 2 2 1 2 4 4 4 3 2 2 2 1 1 1 2 1 1 1 1 3 2 1 3 3 3 2 2 2 2 2 2
7 6 6 6 6 5 6 6 6 4 2 1 1 2 1 1 2 3 3 2 2 2 2 1 2 1 1 1 1 0 1 1 1 2 1 3 3 3 2 1 1 1 1
5 5 5 6 5 5 6 6 6 6 4 3 2 2 2 1 1 1 3 2 2 2 2 2 2 2 1 1 1 1 1 1 1 2 1 1 2 3 3 2 1 0 1
Wind_Direction
103 135 108 98 93 89 90 89 87 87 87 89 92 89 88 87 87 85 84 84 84 84 82 79 78 77 77 78 82 83 83 85 86 87 87 88 91 96 101 102 100 101 109
146 130 109 101 96 92 93 94 92 90 90 92 95 92 89 89 89 87 85 85 84 83 81 79 77 76 75 75 75 77 78 77 81 83 84 90 93 100 102 101 106 106 110
123 122 112 105 99 94 92 96 95 94 93 95 97 94 91 90 90 90 88 87 86 84 83 81 78 76 73 73 74 73 71 70 71 72 77 87 96 103 105 106 107 109 116
124 124 116 110 102 97 92 93 95 98 100 98 97 97 94 92 91 91 90 89 87 86 84 81 77 76 75 72 72 68 65 65 66 63 62 82 104 109 108 106 111 119 122
121 121 120 114 107 102 97 95 96 99 101 102 101 97 98 96 93 92 89 87 87 87 84 79 77 75 75 73 70 68 64 64 66 58 56 76 88 100 102 102 106 114 117
124 121 122 117 111 105 101 97 101 101 100 101 103 100 99 97 95 92 92 90 88 86 83 78 76 75 73 72 72 70 67 64 62 54 61 74 85 90 95 99 99 104 108
129 126 126 120 114 108 104 101 102 103 100 103 106 103 100 97 96 96 95 93 90 87 83 78 74 72 71 68 69 68 65 65 61 57 67 78 86 90 96 95 93 95 100
137 129 127 123 120 113 107 105 105 102 101 103 108 106 104 101 100 99 97 97 96 91 86 80 73 69 67 66 65 68 68 68 64 61 60 79 90 89 92 91 88 89 94
129 125 121 125 124 122 116 111 110 107 104 104 105 105 104 102 102 100 98 99 101 97 91 81 72 68 67 66 67 70 73 70 65 63 71 76 87 85 85 85 84 82 84
122 123 123 126 121 121 124 119 115 110 106 103 102 99 99 97 96 91 90 94 96 94 86 76 68 63 65 67 66 67 68 66 64 62 65 80 85 85 85 86 84 78 82
125 122 121 123 121 120 119 114 111 108 106 104 100 98 85 74 78 83 82 86 86 81 72 65 60 55 54 58 62 67 65 66 68 63 69 83 87 87 86 87 87 84 85
145 147 145 137 127 125 123 108 104 101 99 97 92 97 91 81 84 86 79 71 69 67 60 55 49 49 46 47 58 64 66 63 65 63 70 79 89 91 93 93 93 93 91
158 154 156 157 140 135 120 112 103 93 90 93 95 104 107 93 79 68 63 46 43 49 46 37 36 45 52 59 68 68 65 63 59 58 64 82 92 94 96 98 96 98 100
153 160 159 156 143 142 135 120 113 100 90 90 99 110 108 92 78 68 67 52 49 52 51 45 54 57 60 67 76 81 72 71 64 58 67 78 93 100 101 105 105 104 106
157 165 163 157 154 144 131 126 114 109 104 106 96 98 109 100 101 83 75 65 54 58 62 63 64 67 63 67 74 81 74 70 61 55 55 63 72 86 99 105 111 115 114
163 163 160 153 149 139 140 139 119 112 107 100 95 99 109 106 99 89 76 68 57 64 66 70 68 65 62 66 60 68 72 73 64 60 53 50 62 74 88 95 102 107 111
163 157 155 150 145 144 143 141 119 111 109 103 100 96 97 102 106 102 91 74 65 79 77 74 62 57 58 58 48 44 63 66 65 62 58 48 47 65 85 92 96 102 103
152 149 154 151 142 144 141 133 112 106 101 97 101 98 100 103 106 102 94 85 80 77 74 77 65 59 49 47 37 26 33 45 55 61 61 50 41 56 74 85 91 96 100
151 145 144 140 139 141 134 120 109 104 96 98 96 91 99 107 106 101 92 88 87 74 65 76 63 72 60 40 39 41 29 24 35 58 50 45 44 61 72 76 87 87 94
149 136 125 123 130 131 116 102 92 85 75 80 86 90 101 107 108 103 91 83 86 79 62 63 71 53 61 38 53 38 14 8 29 41 39 44 48 51 63 65 67 63 75
139 138 133 124 125 124 116 120 116 125 121 84 74 86 100 108 111 106 97 86 85 89 85 79 80 61 35 33 54 22 3 11 29 28 29 34 36 47 59 63 70 69 67
157 155 146 143 144 143 138 141 145 147 148 140 77 81 105 113 113 114 112 118 106 97 79 68 79 71 30 45 87 74 15 355 356 3 7 25 23 41 49 57 67 73 72
162 165 162 157 150 145 130 114 99 80 72 67 75 70 79 119 112 109 114 117 115 114 116 105 102 101 75 12 71 121 120 230 319 341 353 6 8 28 25 42 54 64 77
178 174 160 159 152 146 139 134 135 134 145 194 174 158 127 116 115 117 122 125 128 130 136 144 109 116 115 57 356 43 144 162 146 334 335 343 352 4 356 17 34 61 84
172 168 164 160 152 149 150 150 145 133 148 139 131 143 145 154 132 135 137 141 149 148 153 135 108 115 130 141 154 90 60 60 118 147 287 321 343 331 328 338 14 74 75
158 155 154 157 156 153 151 152 151 150 148 137 145 163 178 205 212 171 159 165 171 170 176 178 163 143 138 130 144 148 149 149 176 152 200 284 315 314 323 317 289 187 170
Height
1523 1522 1522 1521 1520 1519 1519 1518 1518 1518 1518 1518 1518 1518 1518 1518 1518 1518 1518 1518 1518 1518 1518 1518 1518 1518 1518 1518 1518 1518 1518 1518 1518 1518 1518 1518 1518 1518 1518 1519 1519 1519 1519
1523 1523 1523 1522 1521 1520 1519 1519 1519 1518 1518 1518 1518 1518 1518 1519 1518 1518 1519 1519 1519 1519 1519 1518 1519 1519 1519 1518 1518 1518 1518 1518 1518 1518 1518 1517 1518 1518 1518 1518 1519 1519 1519
1523 1523 1523 1522 1522 1521 1520 1520 1520 1519 1519 1519 1519 1519 1519 1519 1519 1519 1519 1519 1519 1519 1519 1519 1519 1519 1519 1519 1519 1519 1519 1518 1518 1517 1517 1516 1517 1518 1518 1518 1519 1519 1519
1523 1524 1523 1523 1522 1522 1521 1521 1520 1520 1520 1520 1520 1520 1520 1520 1520 1520 1520 1520 1520 1520 1520 1520 1520 1520 1519 1519 1519 1519 1519 1519 1518 1517 1514 1514 1516 1517 1518 1518 1518 1518 1519
1524 1524 1524 1523 1523 1522 1522 1521 1521 1520 1520 1520 1520 1520 1521 1521 1521 1521 1520 1520 1520 1520 1521 1520 1520 1520 1520 1520 1520 1519 1519 1519 1518 1516 1514 1514 1516 1517 1517 1517 1517 1518 1518
1525 1525 1525 1524 1524 1523 1522 1522 1521 1521 1521 1521 1521 1521 1521 1522 1521 1521 1521 1521 1521 1521 1521 1521 1521 1521 1520 1520 1520 1520 1520 1519 1519 1517 1516 1516 1517 1518 1518 1518 1517 1518 1518
1525 1525 1525 1525 1524 1524 1523 1523 1522 1522 1522 1522 1522 1522 1522 1522 1522 1522 1522 1522 1522 1522 1522 1522 1522 1521 1521 1521 1520 1520 1520 1520 1519 1519 1519 1518 1518 1518 1518 1518 1518 1518 1518
1525 1525 1525 1525 1525 1524 1524 1524 1523 1523 1523 1523 1523 1523 1523 1523 1523 1523 1523 1523 1523 1523 1523 1522 1522 1522 1522 1521 1521 1521 1521 1520 1520 1520 1519 1519 1520 1519 1519 1518 1518 1518 1518
1526 1526 1526 1526 1526 1525 1525 1525 1525 1524 1524 1524 1524 1524 1524 1524 1524 1524 1524 1524 1524 1524 1524 1523 1523 1523 1523 1522 1522 1522 1521 1521 1521 1520 1520 1520 1520 1520 1519 1519 1518 1518 1518
1527 1527 1527 1527 1526 1526 1526 1526 1526 1526 1526 1526 1525 1525 1525 1525 1525 1525 1525 1525 1525 1525 1525 1524 1524 1524 1523 1523 1523 1522 1522 1522 1521 1521 1521 1521 1520 1520 1519 1519 1519 1519 1519
1527 1527 1528 1527 1527 1527 1527 1527 1527 1527 1526 1526 1526 1526 1526 1526 1526 1526 1526 1526 1525 1525 1525 1525 1525 1524 1524 1524 1523 1523 1523 1522 1522 1522 1521 1521 1521 1520 1520 1519 1519 1519 1519
1527 1528 1528 1528 1528 1528 1527 1527 1527 1527 1527 1527 1527 1527 1527 1527 1527 1527 1526 1526 1526 1526 1526 1525 1525 1525 1524 1524 1524 1524 1524 1523 1522 1522 1522 1522 1521 1521 1520 1520 1519 1519 1519
1527 1528 1528 1529 1528 1528 1528 1528 1528 1528 1528 1528 1528 1528 1528 1528 1527 1527 1527 1527 1527 1526 1526 1526 1526 1525 1525 1525 1524 1524 1524 1524 1523 1523 1522 1522 1522 1521 1521 1520 1520 1520 1519
1527 1528 1528 1529 1529 1529 1529 1529 1529 1529 1529 1528 1528 1528 1528 1528 1528 1528 1527 1527 1527 1527 1526 1526 1526 1526 1525 1525 1525 1524 1524 1524 1523 1523 1523 1522 1522 1522 1521 1521 1520 1520 1520
1527 1527 1528 1528 1528 1529 1529 1529 1529 1529 1529 1529 1529 1529 1529 1528 1528 1528 1528 1527 1527 1527 1527 1526 1526 1526 1525 1525 1525 1524 1524 1524 1524 1523 1523 1523 1522 1522 1521 1521 1520 1520 1520
1526 1527 1527 1528 1529 1529 1529 1529 1529 1530 1530 1529 1529 1529 1529 1529 1528 1528 1528 1528 1527 1527 1527 1527 1526 1526 1525 1525 1525 1524 1524 1524 1524 1523 1523 1523 1523 1522 1522 1521 1521 1521 1521
1525 1526 1527 1528 1528 1529 1529 1529 1529 1530 1530 1529 1529 1529 1529 1529 1528 1528 1528 1528 1527 1527 1527 1527 1526 1526 1525 1525 1525 1524 1524 1524 1524 1523 1523 1523 1522 1522 1522 1521 1521 1521 1521
1525 1526 1526 1527 1528 1528 1529 1529 1529 1529 1529 1529 1529 1529 1529 1529 1529 1528 1528 1528 1528 1527 1527 1526 1526 1526 1525 1525 1524 1524 1524 1524 1523 1523 1523 1522 1522 1522 1522 1522 1522 1522 1521
1523 1524 1525 1526 1527 1528 1528 1529 1529 1529 1529 1529 1529 1529 1529 1529 1529 1528 1528 1528 1528 1527 1527 1526 1526 1525 1525 1524 1524 1524 1524 1524 1524 1523 1523 1522 1522 1522 1522 1522 1522 1522 1522
1522 1523 1524 1526 1527 1527 1528 1528 1528 1528 1529 1529 1529 1529 1528 1528 1528 1528 1528 1528 1527 1527 1527 1526 1526 1525 1525 1524 1524 1524 1524 1524 1524 1523 1522 1522 1521 1521 1521 1522 1522 1522 1522
1522 1523 1524 1524 1526 1526 1527 1527 1527 1527 1528 1528 1528 1528 1528 1528 1528 1528 1528 1527 1527 1527 1526 1526 1525 1525 1525 1524 1524 1523 1524 1524 1524 1523 1522 1521 1521 1521 1521 1521 1521 1521 1522
1520 1521 1522 1523 1524 1525 1525 1526 1527 1527 1527 1527 1528 1528 1528 1528 1528 1527 1527 1527 1527 1526 1526 1526 1525 1525 1524 1524 1524 1523 1523 1525 1523 1523 1523 1522 1521 1521 1521 1521 1521 1521 1521
1518 1519 1521 1522 1523 1524 1524 1525 1526 1526 1526 1526 1526 1527 1527 1527 1527 1527 1527 1527 1527 1526 1526 1525 1525 1525 1524 1524 1524 1524 1524 1523 1523 1523 1522 1522 1522 1521 1520 1521 1521 1521 1521
1516 1518 1519 1520 1521 1522 1523 1523 1524 1524 1524 1524 1525 1526 1526 1527 1527 1527 1526 1526 1526 1526 1525 1525 1525 1524 1524 1524 1524 1524 1524 1524 1523 1522 1522 1521 1521 1520 1520 1520 1521 1521 1521
1514 1516 1517 1519 1520 1521 1521 1522 1523 1523 1523 1524 1524 1525 1525 1525 1525 1526 1526 1526 1525 1525 1525 1524 1524 1524 1524 1523 1523 1523 1523 1523 1523 1522 1521 1521 1520 1520 1520 1520 1520 1520 1520
1512 1514 1515 1516 1518 1519 1520 1521 1521 1522 1522 1523 1523 1523 1524 1524 1524 1524 1525 1525 1524 1524 1524 1524 1523 1523 1523 1523 1523 1522 1522 1522 1522 1521 1521 1520 1519 1519 1519 1519 1519 1519 1519